EW8748 Weather Reports


Display with metric or nautical units.
time (UTC)temp
F
wind
direction
speed
MPH
gust
MPH
rain 1hr
in
rain 24hr
in
rain mn
in
humidity
%
barometer
mb
20260509020514 56 359 1.0 1.0 0.00 0.00 0.00 86 1014.7
20260509015513 56 359 1.0 1.0 0.00 0.00 0.00 87 1014.7
20260509014020 56 322 1.0 2.0 0.00 0.00 0.00 86 1014.6
20260509013020 56 359 1.0 2.0 0.00 0.00 0.00 87 1014.5
20260509012513 56 287 0.0 1.0 0.00 0.00 0.00 87 1014.5
20260509011020 57 359 0.0 1.0 0.00 0.00 0.00 87 1014.5
20260509010513 57 359 0.0 0.0 0.00 0.00 0.00 87 1014.5
20260509010013 56 359 0.0 0.0 0.00 0.00 0.00 87 1014.5
20260509004019 56 359 0.0 1.0 0.00 0.00 0.00 87 1014.6
20260509003019 56 287 0.0 1.0 0.00 0.00 0.00 87 1014.6
20260509002514 56 288 0.0 1.0 0.00 0.00 0.00 86 1014.7
20260509001513 57 287 1.0 2.0 0.00 0.00 0.00 86 1014.7
20260509001019 57 289 0.0 1.0 0.00 0.00 0.00 87 1014.8
20260508235513 56 287 0.0 1.0 0.00 0.00 0.00 86 1014.8
20260508235020 56 287 0.0 1.0 0.00 0.00 0.00 86 1014.8
20260508234020 57 359 0.0 1.0 0.00 0.00 0.00 85 1014.8
20260508233020 58 359 1.0 1.0 0.00 0.00 0.00 83 1014.7
20260508232513 58 359 0.0 1.0 0.00 0.00 0.00 84 1014.8
20260508232019 58 287 0.0 0.0 0.00 0.00 0.00 85 1014.8
20260508231513 57 287 0.0 1.0 0.00 0.00 0.00 86 1014.8
20260508231019 57 287 0.0 1.0 0.00 0.00 0.00 86 1014.8
20260508230513 57 289 0.0 1.0 0.00 0.00 0.00 85 1014.8
20260508225019 57 286 1.0 2.0 0.00 0.00 0.00 83 1014.8
20260508224019 58 287 1.0 2.0 0.00 0.00 0.00 84 1014.8
20260508223513 58 289 1.0 2.0 0.00 0.00 0.00 84 1014.8
20260508222513 58 359 1.0 3.0 0.00 0.00 0.00 83 1014.7
20260508222019 58 287 2.0 3.0 0.00 0.00 0.00 83 1014.9
20260508220014 60 201 1.0 3.0 0.00 0.00 0.00 84 1014.6
20260508215020 60 89 0.0 1.0 0.00 0.00 0.00 83 1014.5
20260508214021 60 89 1.0 2.0 0.00 0.00 0.00 82 1014.3
20260508213513 60 143 0.0 2.0 0.00 0.00 0.00 83 1014.4
20260508211020 61 45 1.0 2.0 0.00 0.00 0.00 81 1014.4
20260508204020 61 359 0.0 1.0 0.00 0.00 0.00 79 1014.4
20260508203019 62 27 0.0 2.0 0.00 0.00 0.00 79 1014.4
20260508201020 63 308 0.0 1.0 0.00 0.00 0.00 75 1014.5
20260508200512 63 308 0.0 1.0 0.00 0.00 0.00 75 1014.4
20260508200013 63 359 1.0 3.0 0.00 0.00 0.00 73 1014.3
20260508195512 63 359 1.0 3.0 0.00 0.00 0.00 72 1014.3
20260508195019 64 261 1.0 3.0 0.00 0.00 0.00 73 1014.2
20260508194020 64 56 1.0 2.0 0.00 0.00 0.00 71 1014.0
20260508192513 64 273 2.0 3.0 0.00 0.00 0.00 70 1013.8
20260508192019 64 310 3.0 3.0 0.00 0.00 0.00 69 1013.7
20260508184019 66 18 3.0 3.0 0.00 0.00 0.00 71 1013.2
20260508183020 66 300 2.0 3.0 0.00 0.00 0.00 72 1013.0
20260508180513 67 245 3.0 7.0 0.00 0.00 0.00 68 1012.6
20260508175513 68 262 6.0 12.0 0.00 0.00 0.00 68 1012.5
20260508174021 69 156 5.0 9.0 0.00 0.00 0.00 67 1012.5
20260508173514 69 271 6.0 12.0 0.00 0.00 0.00 68 1012.5
20260508172021 70 244 6.0 10.0 0.00 0.00 0.00 66 1012.3
20260508171514 70 239 8.0 15.0 0.00 0.00 0.00 65 1012.4
20260508170512 71 294 5.0 13.0 0.00 0.00 0.00 65 1012.2
20260508165513 71 234 5.0 10.0 0.00 0.00 0.00 64 1012.0
20260508165020 71 168 5.0 12.0 0.00 0.00 0.00 64 1012.0
20260508164021 72 202 3.0 12.0 0.00 0.00 0.00 63 1012.0
20260508163020 72 127 4.0 8.0 0.00 0.00 0.00 63 1012.0
20260508161020 72 236 3.0 10.0 0.00 0.00 0.00 62 1011.8
20260508160514 72 213 5.0 12.0 0.00 0.00 0.00 61 1012.0
20260508155514 73 253 6.0 12.0 0.00 0.00 0.00 58 1011.9
20260508154512 73 218 4.0 10.0 0.00 0.00 0.00 62 1012.1
20260508153021 73 195 8.0 13.0 0.00 0.00 0.00 61 1012.1
20260508151512 73 235 6.0 15.0 0.00 0.00 0.00 62 1011.9
20260508150013 74 151 7.0 13.0 0.00 0.00 0.00 60 1011.9
20260508145512 73 229 8.0 15.0 0.00 0.00 0.00 62 1011.9
20260508144513 73 231 9.0 16.0 0.00 0.00 0.00 62 1011.8
20260508143512 73 239 6.0 12.0 0.00 0.00 0.00 61 1011.8
20260508143020 74 243 5.0 13.0 0.00 0.00 0.00 62 1011.9
20260508142020 73 231 8.0 15.0 0.00 0.00 0.00 62 1011.8
20260508141512 73 254 9.0 15.0 0.00 0.00 0.00 62 1011.9
20260508141020 74 227 9.0 14.0 0.00 0.00 0.00 62 1012.0
20260508140513 74 229 7.0 13.0 0.00 0.00 0.00 62 1012.0
20260508135512 75 237 9.0 15.0 0.00 0.00 0.00 60 1012.0
20260508134513 74 261 5.0 17.0 0.00 0.00 0.00 61 1012.0
20260508134020 74 252 9.0 15.0 0.00 0.00 0.00 60 1012.0
20260508132512 74 239 10.0 22.0 0.00 0.00 0.00 60 1012.0
20260508130512 74 253 7.0 12.0 0.00 0.00 0.00 60 1011.9
20260508130013 75 267 7.0 13.0 0.00 0.00 0.00 54 1012.0
20260508125512 76 265 10.0 14.0 0.00 0.00 0.00 53 1012.1
20260508124512 75 259 7.0 14.0 0.00 0.00 0.00 55 1012.1
20260508123020 73 268 5.0 12.0 0.00 0.00 0.00 58 1012.2
20260508122020 73 272 3.0 12.0 0.00 0.00 0.00 59 1012.2
20260508121512 73 245 5.0 10.0 0.00 0.00 0.00 59 1012.3
20260508121020 73 252 5.0 13.0 0.00 0.00 0.00 56 1012.3
20260508120512 74 275 6.0 12.0 0.00 0.00 0.00 56 1012.3
20260508115020 73 253 6.0 12.0 0.00 0.00 0.00 59 1012.4
20260508113512 73 222 5.0 13.0 0.00 0.00 0.00 58 1012.4
20260508110512 72 289 5.0 12.0 0.00 0.00 0.00 58 1012.3
20260508110015 72 258 6.0 15.0 0.00 0.00 0.00 58 1012.3
20260508105020 71 293 9.0 14.0 0.00 0.00 0.00 59 1012.3
20260508104512 72 236 4.0 14.0 0.00 0.00 0.00 59 1012.4
20260508102019 71 336 10.0 13.0 0.00 0.00 0.00 60 1012.7
20260508101512 71 330 9.0 17.0 0.00 0.00 0.00 58 1012.7
20260508101020 71 283 9.0 20.0 0.00 0.00 0.00 58 1012.6
20260508100512 71 278 10.0 16.0 0.00 0.00 0.00 59 1012.6
20260508094020 70 277 5.0 12.0 0.00 0.00 0.00 62 1012.5
20260508093513 70 299 7.0 13.0 0.00 0.00 0.00 63 1012.5
20260508092512 69 268 7.0 14.0 0.00 0.00 0.00 64 1012.4
20260508092021 69 271 7.0 13.0 0.00 0.00 0.00 67 1012.4
20260508091019 69 271 3.0 10.0 0.00 0.00 0.00 67 1012.3
20260508090512 68 266 4.0 12.0 0.00 0.00 0.00 68 1012.3
20260508090012 68 237 5.0 12.0 0.00 0.00 0.00 67 1012.3
20260508083019 67 228 7.0 12.0 0.00 0.00 0.00 70 1012.3
20260508082513 67 285 7.0 12.0 0.00 0.00 0.00 70 1012.3
20260508081512 66 228 5.0 14.0 0.00 0.00 0.00 71 1012.2
20260508081019 66 276 7.0 12.0 0.00 0.00 0.00 71 1012.2
20260508080014 66 241 7.0 13.0 0.00 0.00 0.00 72 1012.2
20260508075512 65 220 9.0 14.0 0.00 0.00 0.00 72 1012.3
20260508074019 64 269 8.0 13.0 0.00 0.00 0.00 74 1012.2
20260508064511 62 264 5.0 10.0 0.00 0.00 0.00 79 1012.2
20260508061512 61 318 3.0 7.0 0.00 0.00 0.00 80 1011.8
20260508061019 61 247 3.0 6.0 0.00 0.00 0.00 81 1011.9
20260508060512 60 256 3.0 7.0 0.00 0.00 0.00 81 1012.0
20260508055511 60 296 4.0 8.0 0.00 0.00 0.00 82 1011.9
20260508055019 59 346 2.0 6.0 0.00 0.00 0.00 83 1011.9
20260508054019 59 323 3.0 5.0 0.00 0.00 0.00 83 1011.9
20260508052512 58 287 2.0 3.0 0.00 0.00 0.00 83 1011.8
20260508052019 58 315 2.0 3.0 0.00 0.00 0.00 84 1011.8
20260508051511 57 359 2.0 3.0 0.00 0.00 0.00 85 1011.6
20260508050512 56 320 1.0 2.0 0.00 0.00 0.00 88 1011.5
20260508050012 56 359 1.0 2.0 0.00 0.00 0.00 88 1011.4
20260508045515 56 303 1.0 3.0 0.00 0.00 0.00 89 1011.3
20260508045019 55 359 2.0 2.0 0.00 0.00 0.00 91 1011.2
20260508043511 54 359 1.0 2.0 0.00 0.00 0.00 92 1011.2
20260508042511 54 359 1.0 2.0 0.00 0.00 0.00 92 1011.0
20260508041511 54 359 1.0 3.0 0.00 0.00 0.00 92 1010.8
20260508040511 54 359 1.0 3.0 0.00 0.00 0.00 93 1010.9
20260508034020 54 359 2.0 3.0 0.00 0.00 0.00 93 1010.6
20260508031511 55 359 1.0 3.0 0.00 0.00 0.00 93 1010.5
20260508031018 55 359 1.0 3.0 0.00 0.00 0.00 93 1010.5
20260508030511 55 292 2.0 3.0 0.00 0.00 0.00 93 1010.5
20260508030011 56 298 1.0 3.0 0.00 0.00 0.00 93 1010.3
20260508025019 56 272 1.0 3.0 0.00 0.00 0.00 93 1010.3
20260508024511 56 272 1.0 2.0 0.00 0.00 0.00 93 1010.3
20260508023512 56 359 1.0 2.0 0.00 0.00 0.00 93 1010.1
20260508023019 56 271 1.0 2.0 0.00 0.00 0.00 93 1010.2
20260508022020 56 249 1.0 2.0 0.00 0.00 0.00 93 1010.3
20260508021512 56 359 1.0 2.0 0.00 0.00 0.00 92 1010.3